668  
ASUS41 KLWX 271211  
RWRLWX  
 
REGIONAL WEATHER ROUNDUP  
NATIONAL WEATHER SERVICE BALTIMORE MD/WASHINGTON DC  
800 AM EDT MON MAR 27 2017  
 
NOTE: "FAIR" INDICATES FEW OR NO CLOUDS BELOW 12,000 FEET  
WITH NO SIGNIFICANT WEATHER AND/OR S TO VISIBILITY
.  
TC=TEMPERATURE CELSIUS  
 
* =NON NWS SITE. STATION DOES NOT REPORT PRECIPITATION (E.G. RAIN,  
SNOW, ETC.), THUNDER, OR FOG.
 
 
DCZ001-MDZ009-015-VAZ040>042-051-053>054-271300-  
WASHINGTON METRO  
 
CITY SKY/WX TMP DP RH WIND PRES REMARKS
 
WASHINGTON NAT DRZL/FOG 48 48 100 SE3 30.10F VSB 1/4  
DULLES FOG 47 46 97 CALM 30.09R VSB 1/2  
ANDREWS AFB FOG 46 46 99 SE5 30.08F VSB 0  
FT BELVOIR FOG 47 46 97 SE5 30.09F VSB 1/2  
QUANTICO FOG 48 48 100 SE3 30.11F VSB 1/4  
COLLEGE PARK* CLOUDY 45 45 100 CALM 30.09S VSB 1/4  
LEESBURG* FOG 46 46 100 S3 30.09S VSB 1/2  
MANASSAS* CLOUDY 46 46 100 S3 30.11R FOG  
 

 
 
MDZ006>007-011-014-271300-  
BALTIMORE METRO  
 
CITY SKY/WX TMP DP RH WIND PRES REMARKS
 
BWI AIRPORT DRZL/FOG 45 45 100 E3 30.09S VSB 1/4  
MD SCIENCE CTR N/A 46 44 93 MISG 30.10F  
MARTIN STATE FOG 45 45 100 CALM 30.11F VSB 1/8  
ANNAPOLIS LGT RAIN 47 47 100 CALM 30.10F VSB 1/4  
FORT MEADE* CLOUDY 45 43 93 CALM 30.11S VSB 1/4  
 

 
 
MDZ012-015-019>023-271300-  
MARYLAND EASTERN SHORE  
 
CITY SKY/WX TMP DP RH WIND PRES REMARKS
 
OCEAN CITY MOSUNNY 51 49 92 S7 30.13S  
SALISBURY CLOUDY 55 54 96 S8 30.11S  
BAY BRIDGE AP* FOG 45 45 100 NE3 30.10F VSB<1/4  
CAMBRIDGE* CLOUDY 55 54 94 S6 30.11R  
EASTON* CLOUDY 48 46 93 NW5 30.14R FOG  
 

 
 
MDZ017>025-271300-  
SOUTHERN MARYLAND  
 
CITY SKY/WX TMP DP RH WIND PRES REMARKS
 
PATUXENT RIVER CLOUDY 55 55 100 SW8 30.10R  
ST INIGOES CLOUDY 55 53 93 S6 30.10R  
LEONARDTOWN* CLOUDY 52 50 93 CALM 30.12R  
 

 
 
MDZ003>005-271300-  
NORTH CENTRAL MARYLAND  
 
CITY SKY/WX TMP DP RH WIND PRES REMARKS
 
FREDERICK* CLOUDY 46 46 100 CALM 30.11S FOG  
HAGERSTOWN APT FOG 46 45 96 CALM 30.07R VSB 3/4  
WESTMINSTER* CLOUDY 46 46 100 CALM 30.07S FOG  
 

 
 
MDZ501>502-271300-  
WESTERN MARYLAND  
 
CITY SKY/WX TMP DP RH WIND PRES REMARKS
 
OAKLAND* CLOUDY 50 50 100 W7 30.02S FOG  
CUMBERLAND* CLOUDY 46 46 100 CALM 30.10R  
 

 
 
VAZ025>031-271300-  
SHENANDOAH VALLEY  
 
CITY SKY/WX TMP DP RH WIND PRES REMARKS
 
WINCHESTER* CLOUDY 46 46 100 CALM 30.05S FOG  
FRONT ROYAL* CLOUDY 48 48 100 CALM 30.05S  
LURAY* CLOUDY 50 50 100 CALM 30.06R FOG  
NEW MARKET* CLOUDY 47 46 96 NE3 30.06R  
STAUNTON* CLOUDY 51 51 98 CALM 30.08S  
WAYNESBORO* CLOUDY 51 51 100 CALM 30.07R  
 

 
 
WVZ021-048>050-054>055-271300-  
EASTERN WEST VIRGINIA PANHANDLE  
 
CITY SKY/WX TMP DP RH WIND PRES REMARKS
 
MARTINSBURG CLOUDY 46 45 96 N5 30.06R FOG  
PETERSBURG* CLOUDY 48 47 95 CALM 30.06R  
 

 
 
VAZ036>039-050-271300-  
CENTRAL FOOTHILLS  
 
CITY SKY/WX TMP DP RH WIND PRES REMARKS
 
CHARLOTTESVILL CLOUDY 51 50 96 CALM 30.09R FOG  
CULPEPER* FOG 49 49 100 CALM 30.11R VSB 1/2  
ORANGE* CLOUDY 46 46 100 CALM 30.10S FOG  
GORDONSVILLE* CLOUDY 49 49 100 CALM 30.09S FOG  
WARRENTON* FOG 49 46 91 CALM 30.09R VSB 1/4  
 

 
 
VAZ055>057-271300-  
NORTH AND CENTRAL PIEDMONT  
 
CITY SKY/WX TMP DP RH WIND PRES REMARKS
 
FREDERICKSBRG* FOG 49 49 100 CALM 30.10S VSB<1/4  
STAFFORD* LGT RAIN 47 47 100 CALM 30.14S VSB 1/4  
 

 
 
NCZ024-NYZ072-PAZ021-071-VAZ022-071-271300-  
OTHER REGIONAL OBSERVATIONS  
 
CITY SKY/WX TMP DP RH WIND PRES REMARKS
 
NEW YORK CITY LGT RAIN 39 38 96 VRB6 30.14F FOG  
PHILADELPHIA LGT RAIN 44 43 96 NE3 30.11S VSB 1  
PITTSBURGH MOCLDY 55 53 93 SW7 29.97R  
ROANOKE CLOUDY 55 55 100 SE3 30.10S  
RICHMOND CLOUDY 58 55 90 S8 30.11R  
RALEIGH LGT RAIN 59 57 93 CALM 30.15R  
 

 
 
ANZ530>537-271300-  
MARINE OBSERVATIONS  
 
STATION/POSITION TIME TEMP WIND PRES
 
AIR SEA DIR/SP/G  
(UTC) (F) (DEG/KT/KT) (MB)  
THOMAS PT LIGHT 1200 45 45 20/ 3/ 3 N/A  
BALT KEY BRIDGE 1148 44 90/ 5/ 5 1019.0F  
COVE POINT 1148 48 200/ 2/ 3 1019.9R  
LEWISETTA 1148 58 51 220/ 10/ 13 1019.0R  
SOLOMONS ISLAND 1148 49 47 340/ 3/ 4 N/A  
PINEY POINT 1142 120/ 4/ 5 N/A  
 

 
 
 
 
CLICK HERE TO GO TO PREVIOUS BULLETINS.

The Nexlab VA Page
The Nexlab MD Page
The Nexlab WV Page Main Text Page